Change the Weather History Date:

Monday, October 13, 2014

  Actual Average Record
Temperature  
Mean Temperature 59 °F 57 °F  
Max Temperature 63 °F 69 °F 91 °F (1954)
Min Temperature 54 °F 45 °F 30 °F (2006)
Degree Days  
Heating Degree Days 6 9  
Month to date heating degree days 71 90  
Since 1 July heating degree days 94 148  
Cooling Degree Days 0 0  
Month to date cooling degree days 11 12  
Year to date cooling degree days 1091 1033  
Growing Degree Days 8 (Base 50)    
Moisture  
Dew Point 56 °F    
Average Humidity 95    
Maximum Humidity 100    
Minimum Humidity 90    
Precipitation  
Precipitation 0.03 in 0.10 in 0.33 in (2004)
Month to date precipitation 1.64 1.42  
Year to date precipitation 31.00 34.04  
Sea Level Pressure  
Sea Level Pressure 30.24 in    
Wind  
Wind Speed 0 mph (West)    
Max Wind Speed 5 mph    
Max Gust Speed 7 mph    
Visibility 2 miles    
Events Rain    
T = Trace of Precipitation, MM = Missing Value Source: NWS Daily Summary

Daily Weather History Graph

Daily Weather History Graph

Search for Another Location

Airport or City:

Trip Planner

Search our weather history database for the weather conditions in past years. The results will help you decide how hot, cold, wet, or windy it might be!

Date:

Astronomy

Oct. 13, 2014 Rise Set
Actual Time 7:20 AM EDT 6:38 PM EDT
Civil Twilight 6:54 AM EDT 7:05 PM EDT
Nautical Twilight 6:23 AM EDT 7:35 PM EDT
Astronomical Twilight 5:52 AM EDT 8:06 PM EDT
Moon 10:50 PM EDT (10/13) 12:30 PM EDT (10/13)
Length of Visible Light 12h 11m
Length of Day
11h 18m
Waning Gibbous, 70% of the Moon is Illuminated
Oct 13
Waning Gibbous
Oct 15
Last Quarter
Oct 23
New
Oct 30
First Quarter
Nov 6
Full

Hourly Weather History & Observations

Time (EDT) Temp. Dew Point Humidity Pressure Visibility Wind Dir Wind Speed Gust Speed Precip Events Conditions
12:02 AM 54.0 °F 52.0 °F 93% 30.28 in 1.5 mi Calm Calm - 0.00 in Rain Light Rain
12:19 AM 54.0 °F 52.0 °F 93% 30.28 in 2.0 mi Calm Calm - 0.01 in Rain Light Rain
12:33 AM 54.0 °F 52.0 °F 93% 30.27 in 1.8 mi Calm Calm - 0.01 in Rain Light Rain
12:50 AM 53.6 °F 51.8 °F 94% 30.27 in 2.0 mi Calm Calm - 0.02 in   Overcast
12:53 AM 54.0 °F 53.1 °F 97% 30.27 in 2.0 mi Calm Calm - 0.02 in   Overcast
1:15 AM 54.0 °F 52.0 °F 93% 30.27 in 1.8 mi Calm Calm - N/A   Overcast
1:32 AM 54.0 °F 53.1 °F 97% 30.27 in 1.8 mi Calm Calm - N/A   Overcast
1:38 AM 54.0 °F 53.1 °F 97% 30.27 in 2.0 mi Calm Calm - N/A   Overcast
1:45 AM 54.0 °F 53.1 °F 97% 30.27 in 1.8 mi Calm Calm - 0.01 in Rain Light Rain
1:53 AM 54.0 °F 53.1 °F 97% 30.27 in 1.8 mi Calm Calm - 0.01 in Rain Light Rain
2:19 AM 54.0 °F 53.1 °F 97% 30.27 in 2.0 mi Calm Calm - 0.01 in   Overcast
2:53 AM 54.0 °F 53.1 °F 97% 30.26 in 2.0 mi Calm Calm - 0.01 in   Overcast
3:13 AM 54.0 °F 53.1 °F 97% 30.26 in 1.8 mi Calm Calm - N/A   Overcast
3:27 AM 54.0 °F 53.1 °F 97% 30.26 in 1.8 mi Calm Calm - N/A   Overcast
3:46 AM 54.0 °F 53.1 °F 97% 30.25 in 2.0 mi Calm Calm - N/A   Overcast
3:53 AM 54.0 °F 53.1 °F 97% 30.25 in 1.8 mi Calm Calm - N/A   Overcast
4:16 AM 54.0 °F 53.1 °F 97% 30.25 in 2.0 mi Calm Calm - N/A   Overcast
4:30 AM 54.0 °F 53.1 °F 97% 30.25 in 2.5 mi Calm Calm - N/A   Overcast
4:40 AM 54.0 °F 53.1 °F 97% 30.24 in 3.0 mi Calm Calm - N/A   Overcast
4:49 AM 53.6 °F 53.6 °F 100% 30.25 in 2.5 mi Calm Calm - N/A   Overcast
4:53 AM 54.0 °F 53.1 °F 97% 30.24 in 2.5 mi Calm Calm - N/A   Overcast
5:10 AM 54.0 °F 53.1 °F 97% 30.25 in 2.0 mi Calm Calm - N/A   Overcast
5:19 AM 54.0 °F 53.1 °F 97% 30.25 in 1.5 mi Calm Calm - N/A   Overcast
5:46 AM 54.0 °F 53.1 °F 97% 30.25 in 1.8 mi Calm Calm - 0.01 in Rain Light Rain
5:53 AM 55.0 °F 53.1 °F 93% 30.24 in 1.8 mi Calm Calm - 0.01 in   Overcast
6:09 AM 55.0 °F 54.0 °F 96% 30.25 in 1.8 mi Calm Calm - N/A   Overcast
6:53 AM 55.0 °F 54.0 °F 96% 30.25 in 2.5 mi Calm Calm - N/A   Overcast
7:07 AM 55.0 °F 54.0 °F 96% 30.25 in 2.5 mi Calm Calm - N/A   Overcast
7:30 AM 55.0 °F 54.0 °F 96% 30.26 in 3.0 mi Calm Calm - N/A   Overcast
7:44 AM 55.0 °F 54.0 °F 96% 30.27 in 2.5 mi Calm Calm - N/A   Overcast
7:53 AM 55.0 °F 54.0 °F 96% 30.27 in 1.0 mi Calm Calm - N/A   Mist
8:53 AM 55.0 °F 54.0 °F 96% 30.27 in 1.2 mi Calm Calm - N/A   Overcast
9:17 AM 55.9 °F 55.0 °F 97% 30.28 in 2.0 mi Calm Calm - N/A   Overcast
9:53 AM 55.9 °F 55.0 °F 97% 30.28 in 1.2 mi Calm Calm - N/A   Mist
10:53 AM 57.0 °F 55.0 °F 93% 30.27 in 1.0 mi Calm Calm - N/A   Mist
11:53 AM 57.9 °F 55.9 °F 93% 30.27 in 2.0 mi Calm Calm - N/A   Overcast
12:53 PM 59.0 °F 57.0 °F 93% 30.25 in 3.0 mi Calm Calm - N/A   Overcast
1:53 PM 60.1 °F 57.9 °F 93% 30.23 in 7.0 mi Calm Calm - N/A   Overcast
2:50 PM 60.8 °F 59.0 °F 94% 30.22 in 2.0 mi Calm Calm - N/A   Overcast
2:53 PM 61.0 °F 59.0 °F 93% 30.21 in 2.0 mi SSW 4.6 mph - N/A   Overcast
3:53 PM 62.1 °F 59.0 °F 90% 30.22 in 2.5 mi Calm Calm - N/A   Overcast
4:53 PM 63.0 °F 60.1 °F 90% 30.21 in 2.5 mi Calm Calm - N/A   Overcast
4:56 PM 62.1 °F 59.0 °F 90% 30.21 in 2.5 mi Calm Calm - N/A   Overcast
5:53 PM 62.1 °F 59.0 °F 90% 30.21 in 2.5 mi Calm Calm - N/A   Overcast
6:19 PM 62.1 °F 59.0 °F 90% 30.22 in 4.0 mi NNW 3.5 mph - N/A   Mostly Cloudy
6:51 PM 62.6 °F 59.0 °F 88% 30.21 in 2.5 mi Calm Calm - N/A   Overcast
6:53 PM 62.1 °F 59.0 °F 90% 30.21 in 2.5 mi Calm Calm - N/A   Overcast
7:00 PM 61.0 °F 59.0 °F 93% 30.21 in 2.5 mi Calm Calm - N/A   Overcast
7:20 PM 61.0 °F 59.0 °F 93% 30.21 in 4.0 mi Calm Calm - N/A   Overcast
7:36 PM 60.1 °F 59.0 °F 96% 30.21 in 4.0 mi Calm Calm - N/A   Mostly Cloudy
7:47 PM 60.8 °F 59.0 °F 94% 30.21 in 2.5 mi Calm Calm - N/A   Mostly Cloudy
7:53 PM 60.1 °F 59.0 °F 96% 30.20 in 2.5 mi Calm Calm - N/A   Mostly Cloudy
8:33 PM 60.1 °F 59.0 °F 96% 30.20 in 6.0 mi Calm Calm - N/A   Overcast
8:51 PM 59.0 °F 57.2 °F 94% 30.20 in 4.0 mi Calm Calm - N/A   Overcast
8:53 PM 59.0 °F 57.9 °F 96% 30.20 in 4.0 mi Calm Calm - N/A   Overcast
9:00 PM 60.1 °F 57.9 °F 93% 30.20 in 4.0 mi Calm Calm - N/A   Mostly Cloudy
9:37 PM 60.1 °F 57.9 °F 93% 30.20 in 2.0 mi Calm Calm - N/A   Overcast
9:53 PM 60.1 °F 57.9 °F 93% 30.20 in 5.0 mi Calm Calm - N/A   Overcast
10:26 PM 59.0 °F 57.9 °F 96% 30.21 in 1.8 mi Calm Calm - N/A   Mostly Cloudy
10:33 PM 59.0 °F 57.9 °F 96% 30.21 in 4.0 mi Calm Calm - N/A   Mostly Cloudy
10:53 PM 57.9 °F 57.0 °F 97% 30.20 in 4.0 mi Calm Calm - N/A   Mostly Cloudy
11:00 PM 59.0 °F 57.9 °F 96% 30.20 in 1.2 mi Calm Calm - N/A   Overcast
11:13 PM 59.0 °F 57.9 °F 96% 30.19 in 3.0 mi Calm Calm - N/A   Overcast
11:35 PM 59.0 °F 57.0 °F 93% 30.19 in 1.8 mi Calm Calm - N/A   Mostly Cloudy
11:42 PM 57.9 °F 57.0 °F 97% 30.19 in 0.8 mi Calm Calm - N/A   Mostly Cloudy
11:49 PM 57.2 °F 57.2 °F 100% 30.19 in 1.2 mi Calm Calm - N/A   Mostly Cloudy
11:53 PM 57.9 °F 57.0 °F 97% 30.18 in 2.5 mi Calm Calm - N/A   Mostly Cloudy